Theta_e
293 295 297 298 299 301 305 308 313 319 323 325 323 321 321 322 323 324 325 324 323 322 323 327 327 325 324 324 324 324 324 323 322 318 312 305 303 305
292 293 295 296 297 298 303 307 312 317 321 323 321 322 322 322 323 323 324 324 323 324 324 326 327 326 325 324 324 323 323 323 323 323 319 314 308 303
290 291 293 295 293 297 303 308 313 316 320 321 324 323 323 323 323 322 323 323 324 325 326 325 328 327 326 325 325 324 324 323 323 323 323 320 317 310
287 289 291 293 293 295 300 308 313 316 319 323 325 325 325 323 321 322 324 324 325 324 324 324 324 324 325 327 327 325 324 324 323 323 323 323 320 318
286 288 289 290 290 293 298 305 313 316 320 321 325 325 323 323 323 324 324 323 322 321 322 322 322 322 324 325 326 327 325 325 324 324 323 323 323 321
285 287 288 289 289 290 294 298 307 312 319 323 326 324 324 323 323 323 322 323 324 322 322 324 323 325 325 326 325 326 326 325 325 324 324 324 324 323
285 286 287 288 288 289 290 293 297 309 318 322 323 323 323 323 323 323 321 321 322 322 324 322 322 322 324 326 326 326 326 326 325 325 324 324 324 324
284 285 285 286 287 290 289 291 294 302 314 322 322 322 323 323 323 322 321 322 323 322 324 322 322 321 322 323 324 325 325 325 326 325 325 324 325 325
283 283 284 284 286 287 288 290 293 295 298 316 321 321 321 321 321 322 321 323 323 322 322 322 323 323 321 321 323 323 323 324 323 325 324 325 325 324
282 282 282 283 283 285 288 291 288 293 293 306 311 314 316 316 319 320 321 322 322 322 322 321 321 321 321 321 323 323 324 323 323 323 323 324 325 324
282 281 282 282 282 282 286 288 290 292 292 300 301 306 309 306 311 312 317 320 320 320 321 321 320 321 321 322 321 322 323 323 322 324 323 322 322 323
279 280 281 280 281 283 283 283 287 287 294 298 299 302 301 303 303 304 308 318 317 316 316 317 318 319 319 320 321 321 322 320 320 322 321 323 323 323
278 278 279 279 279 282 283 284 283 286 290 293 295 297 300 299 299 302 301 310 312 313 314 315 315 316 316 318 319 319 319 319 319 320 321 321 321 320
278 278 278 279 280 281 282 283 285 286 288 289 291 293 295 296 298 299 299 303 306 309 310 312 312 313 314 315 316 317 317 318 319 320 321 320 320 320
278 279 279 279 280 281 281 281 283 284 283 283 286 286 288 290 293 297 297 298 300 302 305 307 309 310 310 310 311 312 314 315 316 316 317 317 318 319
278 279 279 280 280 279 279 280 280 281 282 282 282 282 285 288 290 293 293 295 297 299 299 302 304 306 307 308 309 311 311 312 313 314 315 315 316 316
278 278 279 279 280 279 279 279 279 280 280 280 281 283 284 285 285 288 289 293 294 296 298 299 301 303 305 306 307 308 309 311 311 312 311 313 313 314
277 277 276 277 277 276 277 278 278 279 279 279 280 280 281 281 283 284 286 288 291 293 295 296 298 300 302 303 305 307 308 308 309 309 311 310 310 311
275 275 275 275 275 275 276 277 277 278 278 279 279 280 280 281 282 283 282 283 287 289 292 293 295 296 298 299 301 303 304 306 305 306 307 308 309 309
274 273 273 274 274 275 276 276 277 278 278 278 279 279 279 280 281 281 282 282 283 286 288 289 290 292 293 294 296 299 301 301 302 303 303 304 304 305
273 273 272 273 273 274 275 275 276 277 277 278 278 279 279 279 280 280 281 282 282 282 284 285 286 289 291 292 293 296 298 298 299 300 301 300 299 299
272 272 273 273 273 273 274 274 275 276 276 277 278 278 279 279 280 281 281 281 281 282 284 284 286 287 289 290 292 294 295 296 296 297 298 296 297 297
271 272 272 272 273 273 273 274 274 275 275 276 277 278 278 279 280 280 281 282 282 282 282 283 285 286 288 288 289 290 292 293 294 294 293 292 292 294
Wind_Speed
35 33 34 33 35 34 38 45 45 39 40 42 37 37 48 52 49 49 45 49 53 63 58 54 54 54 54 51 47 46 43 41 37 35 36 38 43 44
33 32 32 32 34 37 40 46 48 51 45 37 44 49 52 43 40 33 41 48 43 56 57 46 54 57 54 53 51 49 47 45 43 40 38 38 40 43
30 30 31 30 31 40 40 44 47 51 52 44 43 42 41 37 35 36 38 42 36 40 42 36 45 57 56 53 54 52 50 48 46 45 43 41 39 40
31 30 30 31 34 35 34 38 44 51 52 48 43 43 45 47 43 41 42 43 39 36 38 37 39 42 44 52 55 54 53 51 50 48 48 47 44 41
30 30 30 31 34 35 34 32 39 44 50 54 38 45 50 42 40 39 37 37 39 38 41 43 43 48 48 50 54 56 55 53 51 50 50 49 51 45
28 28 28 29 32 34 32 29 34 37 50 45 38 36 41 38 36 36 37 34 33 32 34 35 30 35 42 46 50 53 55 55 53 53 51 50 49 51
28 27 27 27 26 27 27 27 24 25 51 43 33 34 39 38 40 37 36 35 37 34 34 32 28 29 32 38 42 44 48 52 56 56 54 52 50 53
28 27 27 29 29 26 25 17 17 13 23 34 37 38 35 36 36 38 38 37 34 37 35 35 33 32 35 35 37 44 43 43 45 52 57 53 51 52
26 24 26 29 29 29 26 17 14 12 11 27 29 28 28 31 34 33 33 36 40 34 33 32 34 34 35 36 38 39 41 41 36 40 51 52 51 48
24 23 24 28 31 31 30 23 16 13 14 12 17 19 21 26 29 32 34 39 37 32 28 23 23 23 25 29 32 39 40 39 40 41 39 43 50 49
25 24 24 28 30 31 30 27 24 17 12 11 5 9 15 15 18 18 29 26 27 23 28 26 27 23 27 25 21 24 33 34 35 37 40 43 39 42
27 27 27 28 28 28 26 25 26 25 18 10 7 3 6 5 8 13 18 24 23 18 17 18 21 21 17 29 29 27 26 28 28 30 39 41 41 44
28 29 30 28 24 21 21 23 22 21 16 12 7 3 4 6 9 9 6 15 18 17 13 14 16 23 23 11 12 18 17 23 24 26 31 34 36 40
30 28 29 27 22 21 20 19 18 18 17 11 8 7 3 8 6 8 8 11 15 19 20 21 20 16 17 17 16 16 17 19 20 21 25 27 29 27
27 26 25 23 23 22 20 20 18 18 18 17 15 11 7 6 4 8 10 10 13 18 20 21 24 24 24 26 28 22 20 20 19 20 21 24 26 30
27 25 25 24 24 24 24 24 24 23 23 22 19 15 12 9 7 5 8 7 9 12 13 16 20 23 26 27 27 26 24 22 19 20 17 21 20 20
26 25 26 27 28 28 27 27 27 26 26 24 21 20 18 15 11 6 6 4 5 8 11 13 15 19 21 23 26 27 27 26 29 27 25 24 22 20
23 25 27 28 27 26 27 28 28 27 25 23 21 19 18 16 15 12 9 6 5 5 6 8 10 14 18 21 21 23 25 24 25 23 24 24 22 23
24 24 25 26 27 27 28 28 27 26 25 23 22 22 21 18 17 15 14 12 9 8 7 8 9 11 14 17 20 17 18 23 20 20 21 20 18 19
25 25 25 26 26 26 27 27 27 26 24 23 22 22 21 20 19 17 15 15 14 12 10 8 8 9 11 12 13 14 18 19 20 18 18 18 18 19
27 26 25 26 25 25 25 25 25 25 24 24 24 23 22 20 18 17 15 13 13 11 11 10 10 12 12 14 16 17 17 16 16 18 18 18 16 15
26 27 27 27 27 26 26 26 26 24 24 23 23 23 22 20 19 18 16 16 14 13 14 14 12 11 12 15 14 16 17 17 16 16 17 16 13 11
25 25 26 26 27 27 27 26 26 26 25 26 25 24 22 21 19 17 17 15 15 14 13 14 10 10 11 12 13 15 16 15 15 15 14 14 14 9
Wind_Direction
311 303 293 288 286 283 265 256 255 254 237 223 224 238 235 241 237 243 235 240 240 235 241 243 232 232 234 235 234 234 233 234 232 231 230 228 227 226
314 308 300 292 297 291 276 250 255 247 245 234 241 253 240 239 233 233 228 231 241 238 240 232 230 228 231 234 235 236 235 235 235 233 232 231 230 229
318 315 306 303 304 302 281 256 256 245 239 238 240 233 227 221 228 228 234 237 241 229 225 230 236 226 228 230 234 235 236 235 236 237 235 233 232 231
325 320 314 310 307 311 297 259 261 247 235 225 222 222 220 215 216 225 235 244 242 236 229 234 238 233 234 233 234 234 235 236 236 237 237 238 232 231
329 326 319 317 313 316 309 281 255 253 237 225 213 219 208 221 226 233 231 235 240 236 232 232 235 238 233 231 230 233 232 234 235 237 238 240 239 232
334 336 327 324 323 321 317 307 275 259 238 223 207 209 214 216 216 219 225 226 226 227 225 219 227 229 230 229 227 228 231 231 232 235 237 240 241 237
337 342 342 336 337 328 331 323 318 266 224 199 199 205 208 209 212 218 226 228 227 229 220 216 221 225 228 222 226 223 225 231 233 235 237 239 240 245
337 342 346 346 338 337 341 331 335 323 207 197 197 205 215 211 219 223 228 228 222 224 227 232 230 225 231 230 229 227 226 229 231 235 234 236 239 245
339 341 348 343 343 335 339 357 349 335 50 171 182 190 200 215 228 225 225 227 228 222 225 231 237 237 235 235 235 234 234 236 236 234 232 234 238 238
344 342 343 346 351 344 341 341 357 10 19 135 166 188 194 203 207 222 228 220 223 225 221 221 230 230 234 240 234 232 233 235 239 241 239 240 236 237
349 347 345 347 348 352 348 350 351 12 358 57 70 188 201 200 191 200 202 204 194 207 206 218 226 236 241 237 228 233 229 232 239 242 238 238 240 240
349 350 352 352 349 349 358 358 354 0 6 37 46 26 264 216 225 217 209 196 198 198 215 219 224 226 242 243 241 242 235 239 246 244 239 239 239 241
352 351 350 352 349 346 354 2 0 360 16 15 37 358 302 271 236 230 222 207 212 199 182 206 233 236 236 232 237 230 243 241 246 243 240 244 247 241
358 355 354 354 358 358 2 358 6 12 24 25 23 23 327 279 288 273 254 223 226 222 217 217 223 218 230 239 244 244 246 247 248 245 240 251 253 254
2 360 0 6 12 10 12 16 14 24 28 28 31 25 5 335 321 266 271 252 243 237 231 232 236 240 244 247 253 256 256 250 253 248 253 251 253 246
359 3 8 14 20 22 24 24 25 27 22 18 21 13 16 15 356 315 282 252 235 228 231 232 235 239 244 244 246 248 247 245 253 256 258 258 257 258
354 2 9 14 16 19 19 20 25 24 26 25 20 16 15 12 4 349 326 300 259 243 229 227 234 238 242 245 244 246 250 251 253 255 258 260 262 261
2 9 12 14 13 11 10 17 18 20 20 17 18 16 12 7 7 10 354 334 317 286 264 245 241 247 245 244 245 245 248 250 247 245 249 254 258 259
11 12 12 11 9 9 10 12 12 15 14 12 10 9 8 11 11 3 351 349 338 310 282 271 250 246 250 252 248 246 249 251 251 247 242 244 255 261
10 9 9 9 10 9 9 9 9 10 10 9 10 9 6 5 2 356 356 348 337 320 301 279 262 249 243 248 250 245 243 247 249 247 244 243 242 245
6 6 6 6 6 7 8 9 8 8 6 5 6 4 2 359 359 355 345 339 332 316 305 291 267 249 241 242 245 248 247 244 241 241 238 234 233 233
3 3 2 2 3 4 5 6 5 4 3 3 3 1 360 359 356 350 346 336 329 321 310 300 291 276 254 244 244 246 246 242 240 233 226 220 225 220
1 1 360 359 359 360 360 1 1 0 0 359 360 359 357 356 353 347 345 339 330 323 313 302 300 281 260 246 240 244 242 233 227 220 211 205 213 215